SAS4763 ENZV-LDSP

Flight info

Callsign SAS4763
Flight time 2h 30m
Altitude 37000
Route BIVKI DCT ODRID DCT RAXLU DCT MAREM DCT APRAQ DCT VENEN DCT NUPSO
Aircraft A320/M-SDE3FGHIRWY/LB1

Departure

Time 2026-05-08 23:57
Airport Stavanger Airport, Sola (ENZV)

Arrival

Time 2026-05-09 02:27
Airport Split Saint Jerome Airport (LDSP)
Time Latitude Longitude Altitude Speed Heading
2026-05-08 23:12 58.88067 5.62749 26 ft 0 kts 16°
2026-05-08 23:48 58.88050 5.62740 29 ft 4 kts 19°
2026-05-08 23:48 58.88027 5.62719 30 ft 4 kts 40°
2026-05-08 23:49 58.88012 5.62681 31 ft 4 kts 89°
2026-05-08 23:49 58.88012 5.62665 30 ft 0 kts 107°
2026-05-08 23:52 58.88008 5.62695 31 ft 6 kts 107°
2026-05-08 23:52 58.87988 5.62830 26 ft 14 kts 99°
2026-05-08 23:53 58.88012 5.63029 27 ft 17 kts 64°
2026-05-08 23:53 58.88092 5.63210 28 ft 19 kts 44°
2026-05-08 23:53 58.88211 5.63299 30 ft 20 kts 356°
2026-05-08 23:53 58.88291 5.63404 31 ft 15 kts 41°
2026-05-08 23:54 58.88404 5.63427 31 ft 18 kts 359°
2026-05-08 23:54 58.88535 5.63424 31 ft 20 kts 359°
2026-05-08 23:54 58.88684 5.63420 32 ft 23 kts 359°
2026-05-08 23:55 58.89045 5.63411 27 ft 30 kts 359°
2026-05-08 23:55 58.89256 5.63401 25 ft 24 kts
2026-05-08 23:55 58.89348 5.63481 19 ft 17 kts 66°
2026-05-08 23:55 58.89337 5.63717 21 ft 15 kts 132°
2026-05-08 23:56 58.89277 5.63733 19 ft 0 kts 178°
2026-05-08 23:56 58.89181 5.63738 21 ft 45 kts 179°
2026-05-08 23:56 58.88651 5.63759 29 ft 104 kts 179°
2026-05-08 23:56 58.87760 5.63791 61 ft 147 kts 179°
2026-05-08 23:57 58.86768 5.63797 739 ft 139 kts 178°
2026-05-08 23:57 58.85799 5.63812 1374 ft 141 kts 178°
2026-05-08 23:57 58.84748 5.63848 1719 ft 162 kts 178°
2026-05-08 23:57 58.83543 5.63889 2009 ft 185 kts 179°
2026-05-08 23:58 58.82175 5.63932 2315 ft 209 kts 179°
2026-05-08 23:58 58.80632 5.63980 2797 ft 233 kts 180°
2026-05-08 23:58 58.78979 5.64031 3608 ft 241 kts 180°
2026-05-08 23:58 58.77296 5.64084 4612 ft 243 kts 180°
2026-05-08 23:59 58.75616 5.64137 5556 ft 246 kts 180°
2026-05-08 23:59 58.73865 5.64186 6479 ft 251 kts 180°
2026-05-08 23:59 58.72126 5.64236 7304 ft 256 kts 180°
2026-05-08 23:59 58.70916 5.64290 7864 ft 260 kts 178°
2026-05-09 00:00 58.69125 5.65012 8679 ft 268 kts 162°
2026-05-09 00:00 58.66986 5.67520 9750 ft 280 kts 140°
2026-05-09 00:00 58.66022 5.69263 10277 ft 283 kts 140°
2026-05-09 00:00 58.64545 5.71915 10687 ft 302 kts 140°
2026-05-09 00:01 58.62942 5.74759 10896 ft 325 kts 140°
2026-05-09 00:01 58.61225 5.77804 11110 ft 346 kts 140°
2026-05-09 00:01 58.59439 5.80982 11684 ft 353 kts 140°
2026-05-09 00:01 58.57626 5.84213 12370 ft 357 kts 140°
2026-05-09 00:02 58.55795 5.87468 13061 ft 361 kts 140°
2026-05-09 00:02 58.53946 5.90747 13742 ft 365 kts 141°
2026-05-09 00:02 58.52075 5.94058 14374 ft 368 kts 141°
2026-05-09 00:02 58.50185 5.97393 14974 ft 371 kts 141°
2026-05-09 00:03 58.48274 6.00762 15566 ft 375 kts 141°
2026-05-09 00:03 58.46349 6.04146 16150 ft 378 kts 141°
2026-05-09 00:03 58.44408 6.07560 16734 ft 381 kts 141°
2026-05-09 00:03 58.42444 6.11007 17352 ft 385 kts 141°
2026-05-09 00:04 58.40493 6.14423 17957 ft 388 kts 142°
2026-05-09 00:04 58.38490 6.17915 18574 ft 392 kts 142°
2026-05-09 00:04 58.36465 6.21432 19122 ft 396 kts 141°
2026-05-09 00:04 58.34427 6.24980 19670 ft 400 kts 141°
2026-05-09 00:05 58.32407 6.28665 20216 ft 404 kts 139°
2026-05-09 00:05 58.30417 6.32489 20692 ft 410 kts 138°
2026-05-09 00:05 58.28427 6.36409 21189 ft 414 kts 137°
2026-05-09 00:05 58.26426 6.40369 21666 ft 418 kts 138°
2026-05-09 00:06 58.24400 6.44356 22130 ft 421 kts 138°
2026-05-09 00:06 58.22347 6.48357 22567 ft 424 kts 139°
2026-05-09 00:06 58.20270 6.52355 23007 ft 427 kts 139°
2026-05-09 00:06 58.18170 6.56367 23427 ft 431 kts 139°
2026-05-09 00:07 58.16047 6.60406 23836 ft 434 kts 139°
2026-05-09 00:07 58.13907 6.64471 24179 ft 437 kts 139°
2026-05-09 00:07 58.11752 6.68553 24528 ft 440 kts 139°
2026-05-09 00:07 58.09581 6.72658 24866 ft 443 kts 139°
2026-05-09 00:08 58.07399 6.76782 25161 ft 446 kts 139°
2026-05-09 00:08 58.05201 6.80940 25483 ft 449 kts 139°
2026-05-09 00:08 58.02989 6.85121 25802 ft 451 kts 139°
2026-05-09 00:08 58.00763 6.89326 26100 ft 454 kts 138°
2026-05-09 00:09 57.98516 6.93558 26413 ft 458 kts 139°
2026-05-09 00:09 57.96254 6.97801 26732 ft 460 kts 139°
2026-05-09 00:09 57.93976 7.02060 27042 ft 463 kts 139°
2026-05-09 00:09 57.91715 7.06286 27346 ft 466 kts 139°
2026-05-09 00:10 57.89381 7.10648 27663 ft 469 kts 139°
2026-05-09 00:10 57.87093 7.14921 27948 ft 471 kts 139°
2026-05-09 00:10 57.84763 7.19259 28332 ft 471 kts 139°
2026-05-09 00:10 57.82385 7.23465 28757 ft 469 kts 144°
2026-05-09 00:11 57.79754 7.27037 29186 ft 464 kts 153°
2026-05-09 00:11 57.76962 7.30041 29582 ft 463 kts 154°
2026-05-09 00:11 57.74150 7.33026 29951 ft 465 kts 154°
2026-05-09 00:11 57.71333 7.36011 30352 ft 465 kts 154°
2026-05-09 00:12 57.68515 7.38996 30680 ft 466 kts 154°
2026-05-09 00:12 57.65693 7.41987 31051 ft 467 kts 154°
2026-05-09 00:12 57.62869 7.44984 31417 ft 467 kts 154°
2026-05-09 00:12 57.60047 7.47979 31800 ft 467 kts 154°
2026-05-09 00:13 57.57229 7.50964 32185 ft 467 kts 154°
2026-05-09 00:13 57.54405 7.53944 32576 ft 466 kts 154°
2026-05-09 00:13 57.51580 7.56915 32967 ft 466 kts 154°
2026-05-09 00:13 57.48756 7.59883 33356 ft 466 kts 154°
2026-05-09 00:14 57.45928 7.62849 33744 ft 466 kts 154°
2026-05-09 00:14 57.43105 7.65803 34137 ft 466 kts 154°
2026-05-09 00:14 57.40276 7.68754 34457 ft 467 kts 154°
2026-05-09 00:14 57.37445 7.71699 34762 ft 467 kts 154°
2026-05-09 00:15 57.34613 7.74634 35096 ft 466 kts 154°
2026-05-09 00:15 57.31783 7.77562 35421 ft 466 kts 153°
2026-05-09 00:15 57.28956 7.80490 35753 ft 465 kts 153°
2026-05-09 00:15 57.26139 7.83407 36080 ft 464 kts 153°
2026-05-09 00:16 57.23329 7.86312 36411 ft 463 kts 153°
2026-05-09 00:16 57.20516 7.89215 36719 ft 462 kts 154°
2026-05-09 00:16 57.17713 7.92105 37020 ft 461 kts 154°
2026-05-09 00:16 57.14910 7.94991 37242 ft 461 kts 154°
2026-05-09 00:17 57.12099 7.97877 37273 ft 466 kts 154°
2026-05-09 00:17 57.06407 8.03691 37290 ft 469 kts 154°
2026-05-09 00:18 57.00703 8.09505 37285 ft 469 kts 154°
2026-05-09 00:18 56.94988 8.15311 37285 ft 470 kts 154°
2026-05-09 00:19 56.89270 8.21093 37290 ft 470 kts 154°
2026-05-09 00:19 56.83545 8.26860 37267 ft 470 kts 153°
2026-05-09 00:20 56.77811 8.32620 37276 ft 471 kts 153°
2026-05-09 00:20 56.72100 8.38343 37280 ft 472 kts 153°
2026-05-09 00:21 56.66348 8.44098 37287 ft 472 kts 153°
2026-05-09 00:21 56.60583 8.49838 37304 ft 472 kts 154°
2026-05-09 00:22 56.54816 8.55553 37306 ft 473 kts 154°
2026-05-09 00:22 56.49039 8.61247 37300 ft 473 kts 154°
2026-05-09 00:23 56.43252 8.66927 37310 ft 473 kts 153°
2026-05-09 00:23 56.37464 8.72606 37309 ft 474 kts 153°
2026-05-09 00:24 56.31664 8.78263 37307 ft 474 kts 153°
2026-05-09 00:24 56.25861 8.83914 37296 ft 474 kts 153°
2026-05-09 00:25 56.20055 8.89564 37292 ft 475 kts 153°
2026-05-09 00:25 56.14239 8.95196 37304 ft 475 kts 153°
2026-05-09 00:26 56.08417 9.00814 37302 ft 475 kts 153°
2026-05-09 00:26 56.02596 9.06399 37307 ft 475 kts 154°
2026-05-09 00:27 55.96766 9.11966 37314 ft 475 kts 153°
2026-05-09 00:27 55.90938 9.17517 37309 ft 475 kts 153°
2026-05-09 00:28 55.85118 9.23061 37306 ft 475 kts 153°
2026-05-09 00:28 55.79290 9.28601 37316 ft 475 kts 153°
2026-05-09 00:29 55.73448 9.34107 37317 ft 475 kts 153°
2026-05-09 00:29 55.67604 9.39593 37315 ft 475 kts 153°
2026-05-09 00:30 55.61759 9.45075 37311 ft 475 kts 153°
2026-05-09 00:30 55.55916 9.50545 37308 ft 475 kts 153°
2026-05-09 00:31 55.50073 9.55993 37318 ft 475 kts 153°
2026-05-09 00:31 55.44228 9.61423 37316 ft 475 kts 153°
2026-05-09 00:32 55.38379 9.66819 37296 ft 474 kts 153°
2026-05-09 00:32 55.32529 9.72193 37303 ft 475 kts 153°
2026-05-09 00:33 55.26716 9.77547 37304 ft 475 kts 153°
2026-05-09 00:33 55.20865 9.82914 37303 ft 475 kts 153°
2026-05-09 00:34 55.15012 9.88246 37296 ft 474 kts 153°
2026-05-09 00:34 55.09153 9.93559 37296 ft 474 kts 153°
2026-05-09 00:35 55.03296 9.98876 37295 ft 475 kts 153°
2026-05-09 00:35 54.97433 10.04175 37296 ft 475 kts 154°
2026-05-09 00:36 54.91568 10.09465 37298 ft 475 kts 154°
2026-05-09 00:36 54.85694 10.14741 37299 ft 475 kts 154°
2026-05-09 00:37 54.79823 10.19988 37287 ft 475 kts 154°
2026-05-09 00:37 54.73952 10.25221 37292 ft 475 kts 154°
2026-05-09 00:38 54.68090 10.30492 37293 ft 475 kts 153°
2026-05-09 00:38 54.62271 10.35904 37295 ft 475 kts 152°
2026-05-09 00:39 54.56468 10.41352 37291 ft 475 kts 152°
2026-05-09 00:39 54.50656 10.46737 37283 ft 474 kts 153°
2026-05-09 00:40 54.44829 10.52072 37282 ft 475 kts 153°
2026-05-09 00:40 54.39002 10.57406 37282 ft 475 kts 153°
2026-05-09 00:41 54.30262 10.65387 37281 ft 475 kts 153°
2026-05-09 00:41 54.24429 10.70689 37274 ft 475 kts 153°
2026-05-09 00:42 54.18596 10.75968 37280 ft 474 kts 153°
2026-05-09 00:42 54.12757 10.81237 37274 ft 474 kts 153°
2026-05-09 00:43 54.06923 10.86481 37276 ft 474 kts 153°
2026-05-09 00:43 54.01131 10.91684 37270 ft 474 kts 153°
2026-05-09 00:44 53.95294 10.96906 37263 ft 474 kts 153°
2026-05-09 00:44 53.89463 11.02103 37262 ft 473 kts 153°
2026-05-09 00:45 53.83636 11.07292 37269 ft 473 kts 153°
2026-05-09 00:45 53.77807 11.12450 37268 ft 472 kts 154°
2026-05-09 00:46 53.71981 11.17588 37253 ft 472 kts 153°
2026-05-09 00:46 53.66162 11.22712 37255 ft 472 kts 154°
2026-05-09 00:47 53.60337 11.27831 37250 ft 472 kts 154°
2026-05-09 00:47 53.54510 11.32926 37252 ft 472 kts 154°
2026-05-09 00:48 53.48682 11.38004 37255 ft 472 kts 154°
2026-05-09 00:48 53.43836 11.42212 37241 ft 471 kts 154°
2026-05-09 00:49 53.38018 11.47257 37249 ft 470 kts 154°
2026-05-09 00:49 53.32209 11.52288 37250 ft 470 kts 154°
2026-05-09 00:50 53.26405 11.57288 37243 ft 469 kts 154°
2026-05-09 00:50 53.20599 11.62284 37243 ft 469 kts 154°
2026-05-09 00:51 53.14790 11.67257 37232 ft 469 kts 154°
2026-05-09 00:51 53.08978 11.72205 37238 ft 469 kts 154°
2026-05-09 00:52 53.03173 11.77146 37238 ft 468 kts 154°
2026-05-09 00:52 52.97374 11.82072 37241 ft 468 kts 155°
2026-05-09 00:53 52.91579 11.86975 37237 ft 468 kts 154°
2026-05-09 00:53 52.85780 11.91865 37236 ft 467 kts 155°
2026-05-09 00:54 52.79987 11.96734 37233 ft 467 kts 155°
2026-05-09 00:54 52.74190 12.01604 37231 ft 467 kts 155°
2026-05-09 00:55 52.68398 12.06447 37225 ft 467 kts 155°
2026-05-09 00:55 52.62596 12.11277 37212 ft 467 kts 155°
2026-05-09 00:56 52.56800 12.16090 37219 ft 466 kts 155°
2026-05-09 00:56 52.51008 12.20893 37222 ft 466 kts 155°
2026-05-09 00:57 52.45217 12.25671 37217 ft 466 kts 155°
2026-05-09 00:57 52.39419 12.30444 37217 ft 466 kts 155°
2026-05-09 00:58 52.33632 12.35208 37206 ft 466 kts 155°
2026-05-09 00:58 52.27841 12.39950 37212 ft 466 kts 155°
2026-05-09 00:59 52.22082 12.44650 37218 ft 465 kts 155°
2026-05-09 00:59 52.16248 12.49386 37212 ft 465 kts 155°
2026-05-09 01:00 52.10496 12.54054 37211 ft 465 kts 155°
2026-05-09 01:00 52.04704 12.58742 37207 ft 465 kts 155°
2026-05-09 01:01 51.98915 12.63418 37209 ft 465 kts 155°
2026-05-09 01:01 51.93122 12.68072 37210 ft 464 kts 155°
2026-05-09 01:02 51.87339 12.72718 37209 ft 464 kts 155°
2026-05-09 01:02 51.81549 12.77346 37199 ft 464 kts 156°
2026-05-09 01:03 51.75766 12.81958 37206 ft 463 kts 156°
2026-05-09 01:03 51.69984 12.86556 37209 ft 463 kts 156°
2026-05-09 01:04 51.64201 12.91145 37206 ft 463 kts 156°
2026-05-09 01:04 51.58425 12.95714 37205 ft 463 kts 156°
2026-05-09 01:05 51.52666 13.00254 37210 ft 462 kts 156°
2026-05-09 01:06 51.44014 13.07046 37205 ft 462 kts 156°
2026-05-09 01:06 51.38239 13.11576 37200 ft 462 kts 156°
2026-05-09 01:07 51.32455 13.16086 37198 ft 462 kts 156°
2026-05-09 01:07 51.26711 13.20555 37190 ft 462 kts 156°
2026-05-09 01:08 51.20934 13.25050 37189 ft 462 kts 156°
2026-05-09 01:08 51.15155 13.29525 37195 ft 462 kts 156°
2026-05-09 01:09 51.09369 13.33978 37203 ft 462 kts 156°
2026-05-09 01:09 51.03590 13.38426 37187 ft 462 kts 156°
2026-05-09 01:10 50.97809 13.42865 37199 ft 462 kts 156°
2026-05-09 01:10 50.92028 13.47292 37195 ft 461 kts 156°
2026-05-09 01:11 50.86239 13.51708 37192 ft 461 kts 156°
2026-05-09 01:11 50.80457 13.56112 37191 ft 461 kts 156°
2026-05-09 01:12 50.74684 13.60502 37175 ft 461 kts 156°
2026-05-09 01:12 50.68747 13.64215 37187 ft 458 kts 166°
2026-05-09 01:13 50.62640 13.67091 37183 ft 458 kts 166°
2026-05-09 01:13 50.56527 13.69975 37178 ft 458 kts 166°
2026-05-09 01:14 50.50459 13.72826 37173 ft 458 kts 166°
2026-05-09 01:14 50.44344 13.75690 37177 ft 458 kts 166°
2026-05-09 01:15 50.38227 13.78532 37183 ft 459 kts 166°
2026-05-09 01:15 50.32136 13.81364 37181 ft 459 kts 166°
2026-05-09 01:16 50.26015 13.84218 37179 ft 459 kts 166°
2026-05-09 01:16 50.19942 13.87035 37175 ft 459 kts 166°
2026-05-09 01:17 50.10893 13.91227 37174 ft 459 kts 166°
2026-05-09 01:17 50.04802 13.94035 37175 ft 459 kts 166°
2026-05-09 01:18 49.99049 13.96680 37173 ft 459 kts 166°
2026-05-09 01:18 49.92761 13.99560 37177 ft 459 kts 166°
2026-05-09 01:19 49.86642 14.02349 37174 ft 459 kts 166°
2026-05-09 01:19 49.80544 14.05121 37177 ft 459 kts 166°
2026-05-09 01:20 49.74422 14.07903 37168 ft 459 kts 166°
2026-05-09 01:20 49.68295 14.10683 37158 ft 459 kts 166°
2026-05-09 01:21 49.62209 14.13386 37169 ft 458 kts 168°
2026-05-09 01:21 49.56036 14.15838 37163 ft 458 kts 169°
2026-05-09 01:22 49.49894 14.18166 37161 ft 458 kts 169°
2026-05-09 01:22 49.43878 14.20485 37167 ft 458 kts 169°
2026-05-09 01:23 49.37746 14.22896 37156 ft 458 kts 168°
2026-05-09 01:23 49.31567 14.25320 37164 ft 458 kts 169°
2026-05-09 01:24 49.25457 14.27698 37157 ft 458 kts 169°
2026-05-09 01:24 49.19281 14.30102 37161 ft 458 kts 169°
2026-05-09 01:25 49.13132 14.32496 37159 ft 457 kts 169°
2026-05-09 01:25 49.06979 14.34879 37148 ft 457 kts 169°
2026-05-09 01:26 49.00854 14.37246 37151 ft 456 kts 169°
2026-05-09 01:26 48.94703 14.39614 37152 ft 456 kts 169°
2026-05-09 01:27 48.88559 14.41968 37156 ft 456 kts 169°
2026-05-09 01:27 48.82404 14.44328 37141 ft 456 kts 169°
2026-05-09 01:28 48.76299 14.46660 37145 ft 456 kts 169°
2026-05-09 01:28 48.70150 14.49007 37146 ft 456 kts 169°
2026-05-09 01:29 48.64001 14.51353 37139 ft 456 kts 169°
2026-05-09 01:29 48.57908 14.53678 37129 ft 455 kts 170°
2026-05-09 01:30 48.51741 14.55802 37135 ft 454 kts 171°
2026-05-09 01:30 48.45596 14.57723 37132 ft 454 kts 172°
2026-05-09 01:31 48.39419 14.59642 37127 ft 454 kts 172°
2026-05-09 01:31 48.33237 14.61612 37119 ft 454 kts 171°
2026-05-09 01:32 48.27054 14.63594 37116 ft 454 kts 172°
2026-05-09 01:32 48.20861 14.65559 37115 ft 455 kts 172°
2026-05-09 01:33 48.14673 14.67518 37112 ft 455 kts 172°
2026-05-09 01:33 48.08482 14.69479 37104 ft 455 kts 172°
2026-05-09 01:34 48.02286 14.71437 37110 ft 455 kts 172°
2026-05-09 01:34 47.96087 14.73377 37114 ft 455 kts 172°
2026-05-09 01:35 47.89890 14.75319 37117 ft 455 kts 172°
2026-05-09 01:35 47.83685 14.77264 37118 ft 455 kts 172°
2026-05-09 01:36 47.78531 14.78873 37119 ft 456 kts 172°
2026-05-09 01:36 47.72329 14.80810 37118 ft 455 kts 172°
2026-05-09 01:37 47.66117 14.82737 37101 ft 456 kts 172°
2026-05-09 01:37 47.59903 14.84651 37097 ft 456 kts 172°
2026-05-09 01:38 47.53677 14.86572 37113 ft 457 kts 172°
2026-05-09 01:38 47.47449 14.88496 37130 ft 457 kts 172°
2026-05-09 01:39 47.41219 14.90412 37130 ft 458 kts 172°
2026-05-09 01:39 47.34975 14.92334 37133 ft 458 kts 172°
2026-05-09 01:40 47.28728 14.94257 37137 ft 459 kts 172°
2026-05-09 01:40 47.22469 14.96167 37118 ft 459 kts 172°
2026-05-09 01:41 47.16199 14.98070 37120 ft 460 kts 173°
2026-05-09 01:41 47.09963 14.99962 37112 ft 460 kts 172°
2026-05-09 01:42 47.03690 15.01864 37118 ft 460 kts 172°
2026-05-09 01:42 46.97414 15.03766 37103 ft 461 kts 173°
2026-05-09 01:43 46.91127 15.05665 37106 ft 462 kts 173°
2026-05-09 01:43 46.84829 15.07569 37103 ft 462 kts 173°
2026-05-09 01:44 46.78532 15.09459 37092 ft 462 kts 173°
2026-05-09 01:44 46.72224 15.11340 37104 ft 463 kts 173°
2026-05-09 01:45 46.65910 15.13225 37107 ft 463 kts 173°
2026-05-09 01:45 46.59594 15.15112 37105 ft 463 kts 173°
2026-05-09 01:46 46.53281 15.16956 37090 ft 463 kts 173°
2026-05-09 01:46 46.46963 15.18828 37093 ft 463 kts 173°
2026-05-09 01:47 46.40644 15.20722 37096 ft 464 kts 173°
2026-05-09 01:47 46.34320 15.22609 37081 ft 464 kts 173°
2026-05-09 01:48 46.27980 15.24465 37089 ft 465 kts 173°
2026-05-09 01:48 46.21642 15.26312 37095 ft 465 kts 173°
2026-05-09 01:49 46.15300 15.28177 37103 ft 465 kts 173°
2026-05-09 01:49 46.08946 15.30044 37097 ft 466 kts 173°
2026-05-09 01:50 46.02594 15.31900 37107 ft 466 kts 173°
2026-05-09 01:50 45.96233 15.33747 37118 ft 466 kts 173°
2026-05-09 01:51 45.89872 15.35597 37105 ft 467 kts 173°
2026-05-09 01:51 45.83505 15.37443 37109 ft 467 kts 173°
2026-05-09 01:52 45.77126 15.39284 37109 ft 467 kts 173°
2026-05-09 01:52 45.70758 15.41119 37103 ft 467 kts 173°
2026-05-09 01:53 45.64377 15.42954 37090 ft 468 kts 173°
2026-05-09 01:53 45.57999 15.44784 37094 ft 468 kts 173°
2026-05-09 01:54 45.51616 15.46623 37095 ft 468 kts 174°
2026-05-09 01:54 45.45233 15.48448 37079 ft 468 kts 174°
2026-05-09 01:55 45.38841 15.50274 37085 ft 468 kts 174°
2026-05-09 01:55 45.32451 15.52088 37094 ft 469 kts 174°
2026-05-09 01:56 45.26052 15.53905 37085 ft 469 kts 174°
2026-05-09 01:56 45.19649 15.55724 37093 ft 469 kts 174°
2026-05-09 01:57 45.13252 15.57534 37104 ft 469 kts 174°
2026-05-09 01:57 45.06900 15.59323 37093 ft 468 kts 174°
2026-05-09 01:58 45.00503 15.61123 37105 ft 468 kts 174°
2026-05-09 01:58 44.94113 15.62922 37108 ft 468 kts 174°
2026-05-09 01:59 44.87719 15.64703 37099 ft 468 kts 174°
2026-05-09 01:59 44.81335 15.66479 37113 ft 468 kts 174°
2026-05-09 02:00 44.74956 15.68267 37125 ft 467 kts 174°
2026-05-09 02:00 44.68583 15.70044 37125 ft 466 kts 174°
2026-05-09 02:01 44.62223 15.71800 37116 ft 466 kts 174°
2026-05-09 02:01 44.55868 15.73559 36885 ft 464 kts 174°
2026-05-09 02:02 44.52713 15.74437 36384 ft 461 kts 174°
2026-05-09 02:02 44.49579 15.75310 35892 ft 458 kts 174°
2026-05-09 02:02 44.46469 15.76174 35284 ft 452 kts 174°
2026-05-09 02:02 44.43403 15.77020 34454 ft 447 kts 174°
2026-05-09 02:03 44.40399 15.77845 33619 ft 443 kts 174°
2026-05-09 02:03 44.37350 15.78681 32754 ft 438 kts 174°
2026-05-09 02:03 44.34384 15.79494 31948 ft 432 kts 174°
2026-05-09 02:03 44.31457 15.80298 31180 ft 426 kts 174°
2026-05-09 02:04 44.28572 15.81087 30446 ft 420 kts 174°
2026-05-09 02:04 44.25761 15.81855 29663 ft 414 kts 174°
2026-05-09 02:04 44.22956 15.82621 28914 ft 408 kts 174°
2026-05-09 02:04 44.20194 15.83377 28203 ft 401 kts 173°
2026-05-09 02:05 44.17478 15.84119 27497 ft 395 kts 173°
2026-05-09 02:05 44.14802 15.84859 26824 ft 390 kts 170°
2026-05-09 02:05 44.12244 15.86068 26163 ft 388 kts 157°
2026-05-09 02:05 44.09853 15.87768 25490 ft 383 kts 155°
2026-05-09 02:06 44.07503 15.89459 24854 ft 377 kts 155°
2026-05-09 02:06 44.05191 15.91118 24186 ft 371 kts 155°
2026-05-09 02:06 44.02911 15.92749 23520 ft 365 kts 155°
2026-05-09 02:07 43.98447 15.95930 21936 ft 357 kts 155°
2026-05-09 02:07 43.96247 15.97497 21165 ft 354 kts 154°
2026-05-09 02:07 43.94065 15.99051 20406 ft 351 kts 154°
2026-05-09 02:07 43.91904 16.00594 19684 ft 349 kts 154°
2026-05-09 02:08 43.89755 16.02128 18974 ft 346 kts 155°
2026-05-09 02:08 43.87553 16.03347 18330 ft 338 kts 168°
2026-05-09 02:08 43.85252 16.03718 17571 ft 330 kts 184°
2026-05-09 02:08 43.83000 16.03304 16838 ft 325 kts 192°
2026-05-09 02:09 43.80790 16.02722 16108 ft 322 kts 192°
2026-05-09 02:09 43.78600 16.02153 15414 ft 319 kts 192°
2026-05-09 02:09 43.76428 16.01589 14744 ft 316 kts 192°
2026-05-09 02:09 43.74279 16.01030 14093 ft 313 kts 191°
2026-05-09 02:10 43.72153 16.00478 13398 ft 310 kts 191°
2026-05-09 02:10 43.70040 15.99927 12679 ft 307 kts 191°
2026-05-09 02:10 43.67948 15.99380 11977 ft 306 kts 191°
2026-05-09 02:10 43.65859 15.98832 11298 ft 304 kts 191°
2026-05-09 02:11 43.63790 15.98290 10654 ft 302 kts 191°
2026-05-09 02:11 43.61732 15.97754 10022 ft 300 kts 191°
2026-05-09 02:11 43.59693 15.97224 9343 ft 297 kts 191°
2026-05-09 02:11 43.57673 15.96699 8678 ft 294 kts 191°
2026-05-09 02:12 43.55685 15.96183 8238 ft 283 kts 191°
2026-05-09 02:12 43.53816 15.95695 8108 ft 264 kts 191°
2026-05-09 02:12 43.52074 15.95237 7940 ft 247 kts 191°
2026-05-09 02:12 43.50448 15.94763 7735 ft 239 kts 197°
2026-05-09 02:13 43.48909 15.93882 7612 ft 240 kts 211°
2026-05-09 02:13 43.47547 15.92570 7489 ft 238 kts 223°
2026-05-09 02:13 43.46374 15.90957 7371 ft 238 kts 228°
2026-05-09 02:13 43.45219 15.89326 7249 ft 238 kts 227°
2026-05-09 02:14 43.44063 15.87694 7120 ft 238 kts 227°
2026-05-09 02:14 43.42904 15.86060 6991 ft 239 kts 227°
2026-05-09 02:14 43.41747 15.84431 6877 ft 237 kts 227°
2026-05-09 02:14 43.40590 15.82807 6753 ft 238 kts 227°
2026-05-09 02:15 43.39435 15.81188 6639 ft 238 kts 226°
2026-05-09 02:15 43.38288 15.79580 6515 ft 233 kts 226°
2026-05-09 02:15 43.37150 15.77977 6390 ft 236 kts 227°
2026-05-09 02:15 43.36006 15.76363 6275 ft 235 kts 227°
2026-05-09 02:16 43.34860 15.74751 6137 ft 236 kts 227°
2026-05-09 02:16 43.33676 15.73187 6007 ft 237 kts 216°
2026-05-09 02:16 43.32201 15.72236 5886 ft 236 kts 193°
2026-05-09 02:16 43.30563 15.72175 5751 ft 239 kts 168°
2026-05-09 02:17 43.29034 15.73029 5625 ft 238 kts 143°
2026-05-09 02:17 43.27821 15.74538 5504 ft 235 kts 133°
2026-05-09 02:17 43.26658 15.76115 5373 ft 236 kts 133°
2026-05-09 02:17 43.25522 15.77735 5245 ft 235 kts 124°
2026-05-09 02:18 43.24823 15.79708 5122 ft 229 kts 101°
2026-05-09 02:18 43.24735 15.81857 4996 ft 225 kts 78°
2026-05-09 02:18 43.25239 15.83858 4873 ft 221 kts 57°
2026-05-09 02:18 43.26210 15.85467 4745 ft 219 kts 42°
2026-05-09 02:19 43.27281 15.86952 4614 ft 219 kts 44°
2026-05-09 02:19 43.28346 15.88444 4487 ft 219 kts 43°
2026-05-09 02:19 43.29410 15.89939 4354 ft 218 kts 44°
2026-05-09 02:19 43.30470 15.91424 4233 ft 217 kts 45°
2026-05-09 02:20 43.31527 15.92903 4097 ft 216 kts 44°
2026-05-09 02:20 43.32557 15.94343 3974 ft 207 kts 44°
2026-05-09 02:20 43.33541 15.95721 3837 ft 197 kts 44°
2026-05-09 02:20 43.34481 15.97040 3720 ft 189 kts 44°
2026-05-09 02:21 43.35391 15.98318 3579 ft 185 kts 44°
2026-05-09 02:21 43.36289 15.99576 3468 ft 185 kts 44°
2026-05-09 02:21 43.37183 16.00831 3358 ft 182 kts 44°
2026-05-09 02:21 43.38050 16.02047 3223 ft 180 kts 44°
2026-05-09 02:22 43.38933 16.03287 3102 ft 183 kts 45°
2026-05-09 02:22 43.39798 16.04580 2957 ft 184 kts 51°
2026-05-09 02:22 43.40583 16.05989 2870 ft 183 kts 51°
2026-05-09 02:22 43.41343 16.07347 2800 ft 181 kts 51°
2026-05-09 02:23 43.42122 16.08736 2808 ft 183 kts 51°
2026-05-09 02:23 43.42900 16.10127 2806 ft 183 kts 51°
2026-05-09 02:23 43.43676 16.11510 2820 ft 182 kts 50°
2026-05-09 02:23 43.44451 16.12890 2815 ft 181 kts 50°
2026-05-09 02:24 43.45233 16.14278 2674 ft 186 kts 50°
2026-05-09 02:24 43.46038 16.15713 2385 ft 191 kts 50°
2026-05-09 02:24 43.46837 16.17147 2149 ft 187 kts 50°
2026-05-09 02:24 43.47358 16.18082 1970 ft 185 kts 50°
2026-05-09 02:25 43.48114 16.19441 1730 ft 169 kts 50°
2026-05-09 02:25 43.48814 16.20694 1497 ft 156 kts 51°
2026-05-09 02:25 43.49448 16.21830 1304 ft 145 kts 52°
2026-05-09 02:25 43.50052 16.22920 1098 ft 141 kts 52°
2026-05-09 02:26 43.50634 16.23992 899 ft 140 kts 52°
2026-05-09 02:26 43.51226 16.25042 699 ft 137 kts 51°
2026-05-09 02:26 43.51816 16.26088 517 ft 137 kts 50°
2026-05-09 02:26 43.52395 16.27129 357 ft 138 kts 50°
2026-05-09 02:27 43.52975 16.28161 201 ft 136 kts 51°
2026-05-09 02:27 43.53544 16.29164 88 ft 122 kts 52°
2026-05-09 02:27 43.53910 16.29824 76 ft 44 kts 53°
2026-05-09 02:27 43.54042 16.30062 74 ft 11 kts 52°
2026-05-09 02:28 43.54028 16.30098 70 ft 3 kts 172°
2026-05-09 02:28 43.54016 16.30097 73 ft 4 kts 185°
2026-05-09 02:28 43.53963 16.30080 71 ft 11 kts 196°
2026-05-09 02:28 43.53879 16.30009 65 ft 16 kts 231°
2026-05-09 02:29 43.53808 16.29879 62 ft 14 kts 232°
2026-05-09 02:29 43.53758 16.29798 65 ft 4 kts 202°
2026-05-09 02:29 43.53737 16.29839 66 ft 7 kts 114°
2026-05-09 02:29 43.53729 16.29863 64 ft 1 kts 115°
2026-05-09 02:30 43.53726 16.29871 66 ft 0 kts 115°
2026-05-09 03:05 43.53732 16.29878 68 ft 2 kts 30°
2026-05-09 03:05 43.53747 16.29837 67 ft 7 kts 284°